DateTimeUTC,F1_A11,F1_S11,BsB_S11,BsG_S11,BsR_S11,BbsB_S11,BbsG_S11,BbsR_S11,BaB_A11,BaG_A11,BaR_A11,Tu_S11,T_S11,Uu_S11,U_S11,P_S11,T1_A11
2021-03-06T06:00:00Z,00000200,20000000,,,,,,,-000.17,-000.21,0000.15,17.3,24.6,02.0,01.3,0657.2,30.9
2021-03-06T06:01:00Z,00000200,20000000,,,,,,,0000.30,-000.37,-000.08,17.3,24.6,02.0,01.3,0657.1,30.9
2021-03-06T06:02:00Z,00000200,20000000,,,,,,,-000.42,0000.29,0000.08,17.3,24.6,02.0,01.3,0657.1,30.9
2021-03-06T06:03:00Z,00000200,60000000,,,,,,,0000.75,0000.79,-000.03,17.3,24.6,02.0,01.3,0657.1,30.9
2021-03-06T06:04:00Z,00000200,41000000,0001.66,0001.09,0000.82,0000.36,0000.39,0000.05,0000.85,0000.44,0000.52,17.4,24.4,02.1,01.3,0658.0,30.9
2021-03-06T06:05:00Z,00000200,01000000,0001.35,0001.20,0000.88,0000.24,0000.33,0000.19,0000.32,0000.20,0000.44,17.5,24.3,02.1,01.3,0658.0,30.9
2021-03-06T06:06:00Z,00000200,00000000,0001.38,0000.93,0000.82,-000.07,0000.22,0000.07,0000.83,0000.52,0000.65,17.5,24.3,02.0,01.3,0658.0,30.9
2021-03-06T06:07:00Z,00000200,01000000,0001.05,0001.48,0000.79,0000.28,0000.11,0000.15,0000.55,0000.88,0000.13,17.5,24.3,02.0,01.3,0658.0,30.9
2021-03-06T06:08:00Z,00000200,00000000,0001.55,0001.48,0000.59,-000.07,0000.20,0000.08,0000.61,0000.46,0000.30,17.5,24.3,02.1,01.4,0658.0,30.9
2021-03-06T06:09:00Z,00000200,00000000,0001.74,0001.24,0000.81,0000.32,0000.10,0000.15,0000.64,0001.03,0000.72,17.5,24.3,02.1,01.4,0658.1,30.9
2021-03-06T06:10:00Z,00000200,00000000,0001.90,0001.31,0001.02,0000.69,0000.28,0000.06,0000.48,0000.24,-000.20,17.5,24.3,02.0,01.3,0658.0,30.9
2021-03-06T06:11:00Z,00000200,00000000,0001.46,0001.20,0001.03,0000.39,0000.41,0000.17,0000.71,0000.60,0001.12,17.5,24.3,02.1,01.4,0658.0,30.9
2021-03-06T06:12:00Z,00000200,01000000,0002.00,0001.15,0001.24,0000.31,0000.29,0000.18,0000.52,0000.19,-000.05,17.5,24.3,02.0,01.3,0658.0,30.9
2021-03-06T06:13:00Z,00000200,00000000,0001.42,0000.95,0000.86,0000.61,0000.23,0000.08,0000.64,0000.41,0000.27,17.5,24.3,02.0,01.3,0658.1,30.9
2021-03-06T06:14:00Z,00000200,01000000,0001.41,0001.13,0000.94,-000.04,0000.24,0000.29,0000.62,0000.32,0000.45,17.5,24.3,02.0,01.3,0658.1,30.9
2021-03-06T06:15:00Z,00000200,00000000,0001.90,0001.53,0000.82,0000.58,0000.30,-000.02,0000.72,0001.11,0000.80,17.5,24.2,02.0,01.3,0658.1,30.9
2021-03-06T06:16:00Z,00000200,00000000,0002.26,0001.11,0000.88,0000.29,0000.29,0000.16,0000.96,0000.58,0000.61,17.5,24.2,01.9,01.3,0658.1,30.9
2021-03-06T06:17:00Z,00000200,00000000,0001.77,0000.96,0000.94,0000.35,0000.16,0000.16,0000.45,0000.59,0000.06,17.6,24.3,01.9,01.3,0658.1,30.9
2021-03-06T06:18:00Z,00000200,00000000,0001.22,0001.36,0000.86,0000.33,0000.20,-000.19,0000.60,0000.54,0000.27,17.7,24.3,01.9,01.3,0658.1,30.9
2021-03-06T06:19:00Z,00000200,00000000,0001.95,0001.04,0000.74,0000.32,0000.25,0000.24,0000.91,0001.05,0001.04,17.7,24.3,02.0,01.3,0658.1,30.9
2021-03-06T06:20:00Z,00000200,00000000,0002.34,0001.24,0000.76,0000.37,0000.33,0000.49,0000.59,0000.55,0000.37,17.7,24.3,01.9,01.3,0658.1,30.9
2021-03-06T06:21:00Z,00000200,00000000,0001.82,0001.22,0000.91,0000.37,0000.27,0000.17,0000.89,0000.34,0000.17,17.7,24.3,01.9,01.3,0658.1,30.9
2021-03-06T06:22:00Z,00000200,00000000,0001.55,0001.37,0000.74,0000.79,-000.04,0000.21,0000.67,0000.84,0000.71,17.7,24.3,02.0,01.3,0658.2,30.9
2021-03-06T06:23:00Z,00000200,01000000,0001.79,0001.31,0000.74,0000.78,0000.29,-000.06,0000.53,0000.52,0000.29,17.7,24.3,01.9,01.3,0658.2,30.9
2021-03-06T06:24:00Z,00000200,00000000,0002.07,0001.44,0000.72,0000.24,0000.32,0000.17,0001.13,0000.50,0000.41,17.7,24.3,01.9,01.3,0658.2,31.0
2021-03-06T06:25:00Z,00000200,00000000,0001.76,0001.52,0000.95,0000.69,0000.31,-000.18,0000.24,0000.65,0000.41,17.7,24.3,02.0,01.3,0658.2,30.9
2021-03-06T06:26:00Z,00000200,01000000,0002.01,0001.26,0001.09,0000.62,0000.15,0000.35,0001.25,0000.91,0001.01,17.7,24.3,01.9,01.2,0658.2,30.9
2021-03-06T06:27:00Z,00000200,01000000,0001.88,0001.24,0001.31,0000.32,0000.25,0000.14,0000.71,0000.36,0000.20,17.6,24.3,02.0,01.3,0658.2,30.9
2021-03-06T06:28:00Z,00000200,00000000,0002.25,0001.33,0001.10,0000.28,0000.15,0000.27,0000.29,0000.55,0000.06,17.6,24.3,02.0,01.3,0658.2,30.9
2021-03-06T06:29:00Z,00000200,00000000,0002.14,0001.54,0001.15,0000.28,0000.22,0000.26,0000.74,0000.66,0000.39,17.6,24.3,01.9,01.3,0658.3,30.9
2021-03-06T06:30:00Z,00000200,00000000,0001.47,0001.39,0000.76,-000.13,0000.43,0000.15,0000.58,0000.56,0000.62,17.6,24.3,02.0,01.3,0658.3,30.9
2021-03-06T06:31:00Z,00000200,01000000,0001.82,0001.06,0000.81,-000.09,-000.03,0000.12,0000.58,0000.51,0000.33,17.6,24.3,01.9,01.2,0658.3,30.9
2021-03-06T06:32:00Z,00000200,01000000,0001.35,0001.18,0001.07,-000.02,0000.31,0000.04,0000.80,0000.55,0000.60,17.6,24.3,01.8,01.2,0658.2,30.9
2021-03-06T06:33:00Z,00000200,01000000,0001.73,0001.46,0000.91,0000.28,0000.23,0000.16,0000.53,0000.81,0000.45,17.6,24.3,01.8,01.2,0658.3,30.9
2021-03-06T06:34:00Z,00000200,01000000,0001.13,0001.62,0000.85,0000.09,0000.25,0000.19,0000.61,0000.59,0000.22,17.6,24.3,01.8,01.2,0658.3,30.9
2021-03-06T06:35:00Z,00000200,01000000,0001.64,0001.44,0001.07,0000.20,0000.15,0000.32,0000.21,0000.15,0000.32,17.6,24.3,01.7,01.1,0658.3,30.9
2021-03-06T06:36:00Z,00000200,01000000,0002.15,0001.53,0001.01,-000.14,0000.27,0000.12,0000.68,0000.28,0000.31,17.6,24.3,01.7,01.1,0658.3,30.9
2021-03-06T06:37:00Z,00000200,01000000,0001.56,0001.15,0000.85,0000.48,0000.52,0000.15,0000.75,0000.64,0000.55,17.6,24.3,01.6,01.1,0658.3,30.9
2021-03-06T06:38:00Z,00000200,01000000,0001.53,0001.27,0001.01,0000.20,0000.09,0000.12,0000.29,0000.53,0000.26,17.6,24.3,01.6,01.1,0658.3,30.9
2021-03-06T06:39:00Z,00000200,01000000,0001.81,0001.34,0001.28,0000.69,0000.61,0000.25,0001.03,0000.61,0000.46,17.6,24.3,01.6,01.0,0658.3,30.9
2021-03-06T06:40:00Z,00000200,01000000,0001.21,0001.35,0000.92,0000.38,0000.25,0000.46,0000.36,0000.80,0000.30,17.6,24.3,01.6,01.1,0658.3,30.9
2021-03-06T06:41:00Z,00000200,01000000,0001.75,0001.62,0000.96,0000.20,0000.28,0000.40,0000.84,0000.74,0000.66,17.6,24.3,01.5,01.0,0658.4,30.9
2021-03-06T06:42:00Z,00000200,01000000,0002.05,0001.38,0000.49,0000.14,0000.17,-000.02,0000.31,0000.04,0000.18,17.6,24.3,01.6,01.0,0658.4,30.9
2021-03-06T06:43:00Z,00000200,01000000,0001.39,0001.56,0000.88,-000.35,0000.23,0000.25,0000.91,0000.80,0000.38,17.6,24.3,01.5,01.0,0658.3,30.9
2021-03-06T06:44:00Z,00000200,01000000,0000.96,0001.24,0000.73,0000.44,0000.26,0000.13,0000.59,0000.07,0000.20,17.6,24.3,01.5,01.0,0658.3,30.9
2021-03-06T06:45:00Z,00000200,01000000,0001.43,0001.11,0000.64,0000.43,0000.11,0000.08,0000.48,0000.76,0000.82,17.5,24.3,01.5,01.0,0658.4,30.9
2021-03-06T06:46:00Z,00000200,01000000,0001.18,0001.07,0000.77,-000.07,0000.15,0000.14,0001.02,0001.07,0000.27,17.6,24.3,01.4,01.0,0658.3,31.0
2021-03-06T06:47:00Z,00000200,01000000,0002.50,0001.16,0000.73,0000.26,0000.51,-000.01,0000.65,0000.53,0000.63,17.7,24.3,01.4,00.9,0658.3,31.0
2021-03-06T06:48:00Z,00000200,01000000,0001.58,0001.27,0001.10,0000.46,0000.16,0000.06,0000.67,0000.31,0000.40,17.7,24.3,01.4,00.9,0658.4,31.0
2021-03-06T06:49:00Z,00000200,01000000,0002.48,0001.15,0000.77,0000.46,0000.29,-000.02,0000.49,0000.64,0000.92,17.7,24.3,01.3,00.9,0658.3,31.0
2021-03-06T06:50:00Z,00000200,01000000,0001.41,0001.34,0000.93,0000.50,0000.22,0000.07,0000.72,0001.03,0000.17,17.8,24.4,01.3,00.9,0658.3,31.0
2021-03-06T06:51:00Z,00000200,01000000,0001.81,0001.36,0000.74,0000.95,0000.38,0000.06,0000.75,0000.30,0000.58,17.8,24.4,01.4,00.9,0658.3,31.0
2021-03-06T06:52:00Z,00000200,01000000,0001.53,0001.17,0000.79,0000.30,0000.26,0000.11,0000.83,0000.82,0000.60,17.8,24.3,01.5,01.0,0658.3,31.0
2021-03-06T06:53:00Z,00000200,01000000,0001.90,0001.32,0000.72,0000.48,0000.36,0000.09,0000.50,0000.97,0000.53,17.7,24.4,01.5,01.0,0658.4,31.0
2021-03-06T06:54:00Z,00000200,01000000,0001.90,0001.48,0000.77,0000.56,0000.39,0000.03,0000.74,-000.05,-000.10,17.7,24.4,01.5,01.0,0658.3,31.0
2021-03-06T06:55:00Z,00000200,01000000,0002.40,0001.22,0000.60,0000.61,0000.26,0000.21,0000.56,0000.84,0000.47,17.7,24.3,01.4,01.0,0658.3,31.0
2021-03-06T06:56:00Z,00000200,01000000,0001.76,0001.08,0000.92,-000.08,0000.34,0000.20,0000.66,0000.29,0000.24,17.7,24.3,01.3,00.9,0658.3,30.9
2021-03-06T06:57:00Z,00000200,41000000,,,,,,,0000.54,0000.74,0000.23,17.8,24.4,01.2,00.8,0658.4,31.0
2021-03-06T06:58:00Z,00000200,61000000,,,,,,,-000.64,-000.69,-000.10,17.5,24.5,01.4,00.9,0657.4,31.0
2021-03-06T06:59:00Z,00000200,21000000,,,,,,,0000.10,-000.19,-000.00,17.4,24.6,01.2,00.8,0657.4,31.0
